User: anonymous   Login
Location: Unspecified
(0.0000°N, 0.0000°E)
Time: 01:28:16
(UTC+02:00)
Language:

Cosmos 1437 - Orbit

View from above orbital plane
View from above orbital plane
View from above satellite
View from above satellite

Ground track
Ground track

The orbit data is extracted from the following two-line orbital elements,

1 13770U 83003A   16241.87837443  .00004757  00000-0  91489-4 0  9998
2 13770  81.1611 146.4934 0006564 198.4496 161.6512 15.47651511841259
Epoch (UTC): 28 August 2016 21:04:51
Eccentricity: 0.0006564
inclination: 81.1611°
perigee height: 419 km
apogee height: 428 km
right ascension of ascending node: 146.4934°
argument of perigee: 198.4496°
revolutions per day: 15.47651511
mean anomaly at epoch: 161.6512°
orbit number at epoch: 84125

The dashed part of the orbit path shows where the satellite is in the earth's shadow,  

DLR